| time (UTC) | temp C | wind direction | speed KPH | gust KPH | rain 1hr cm | rain 24hr cm | rain mn cm | humidity % | barometer mb |
| 20260503193003 | 25 | 261 | 4.8 | 11.3 | 0.00 | 0.00 | 0.00 | 61 | 1010.1 |
| 20260503184506 | 23 | 338 | 4.8 | 17.7 | 0.00 | 0.00 | 0.00 | 61 | 1010.2 |
| 20260503183003 | 25 | 359 | 4.8 | 19.3 | 0.00 | 0.00 | 0.00 | 58 | 1010.3 |
| 20260503181505 | 26 | 337 | 4.8 | 9.7 | 0.00 | 0.00 | 0.00 | 56 | 1010.2 |
| 20260503180003 | -17 | 0.0 | 0.0 | 0.00 | 0.00 | 0.00 | |||
| 20260503174502 | -17 | 0.0 | 0.0 | 0.00 | 0.00 | 0.00 | |||
| 20260503081503 | 10 | 124 | 1.6 | 3.2 | 0.00 | 0.00 | 0.00 | 94 | 1012.9 |
| 20260503071510 | 10 | 114 | 0.0 | 1.6 | 0.00 | 0.00 | 0.00 | 93 | 1013.2 |
| 20260503054506 | 11 | 359 | 1.6 | 4.8 | 0.00 | 0.00 | 0.00 | 92 | 1013.6 |
| 20260503053006 | 11 | 299 | 0.0 | 6.4 | 0.00 | 0.00 | 0.00 | 92 | 1013.8 |
| 20260503051505 | 11 | 287 | 1.6 | 4.8 | 0.00 | 0.00 | 0.00 | 91 | 1014.0 |
| 20260503044505 | 12 | 345 | 0.0 | 3.2 | 0.00 | 0.00 | 0.00 | 91 | 1013.8 |
| 20260503040007 | 12 | 318 | 6.4 | 8.0 | 0.00 | 0.00 | 0.00 | 89 | 1013.7 |
| 20260503034506 | 12 | 354 | 1.6 | 4.8 | 0.00 | 0.00 | 0.00 | 89 | 1013.9 |
| 20260503033008 | 12 | 354 | 1.6 | 6.4 | 0.00 | 0.00 | 0.00 | 88 | 1013.7 |
| 20260503030009 | 13 | 354 | 0.0 | 4.8 | 0.00 | 0.00 | 0.00 | 87 | 1013.6 |
| 20260503024505 | 13 | 354 | 4.8 | 9.7 | 0.00 | 0.00 | 0.00 | 86 | 1013.3 |
| 20260503023008 | 13 | 332 | 1.6 | 4.8 | 0.00 | 0.00 | 0.00 | 86 | 1013.1 |
| 20260503021510 | 13 | 328 | 4.8 | 9.7 | 0.00 | 0.00 | 0.00 | 85 | 1013.3 |
| 20260503020010 | 13 | 306 | 3.2 | 6.4 | 0.00 | 0.00 | 0.00 | 84 | 1013.3 |
| 20260503014506 | 14 | 325 | 3.2 | 8.0 | 0.00 | 0.00 | 0.00 | 83 | 1013.4 |
| 20260503013005 | 14 | 314 | 4.8 | 6.4 | 0.00 | 0.00 | 0.00 | 84 | 1013.5 |
| 20260503011507 | 13 | 321 | 4.8 | 12.9 | 0.00 | 0.00 | 0.00 | 85 | 1013.4 |
| 20260503010007 | 13 | 330 | 6.4 | 16.1 | 0.00 | 0.00 | 0.00 | 85 | 1013.3 |
| 20260503003008 | 15 | 318 | 6.4 | 17.7 | 0.00 | 0.00 | 0.00 | 81 | 1013.3 |
| 20260503000007 | 16 | 339 | 8.0 | 17.7 | 0.00 | 0.00 | 0.00 | 77 | 1013.4 |
| 20260502234507 | 16 | 321 | 8.0 | 12.9 | 0.00 | 0.00 | 0.00 | 76 | 1013.6 |
| 20260502231506 | 16 | 308 | 8.0 | 17.7 | 0.00 | 0.00 | 0.00 | 75 | 1013.9 |
| 20260502230009 | 16 | 330 | 11.3 | 19.3 | 0.00 | 0.00 | 0.00 | 76 | 1014.1 |
| 20260502223004 | 16 | 283 | 9.7 | 20.9 | 0.00 | 0.00 | 0.00 | 77 | 1014.3 |
| 20260502220009 | 16 | 270 | 8.0 | 16.1 | 0.00 | 0.00 | 0.00 | 76 | 1014.6 |
| 20260502214504 | 16 | 283 | 11.3 | 19.3 | 0.00 | 0.00 | 0.00 | 78 | 1014.5 |
| 20260502213006 | 16 | 317 | 4.8 | 14.5 | 0.00 | 0.00 | 0.00 | 79 | 1014.5 |
| 20260502211508 | 15 | 299 | 6.4 | 16.1 | 0.00 | 0.00 | 0.00 | 79 | 1014.7 |
| 20260502210007 | 15 | 288 | 8.0 | 20.9 | 0.00 | 0.00 | 0.00 | 79 | 1014.9 |
| 20260502204504 | 15 | 310 | 4.8 | 17.7 | 0.00 | 0.00 | 0.00 | 79 | 1015.2 |
| 20260502203008 | 15 | 328 | 12.9 | 19.3 | 0.00 | 0.00 | 0.00 | 75 | 1015.2 |
| 20260502201506 | 15 | 4 | 6.4 | 16.1 | 0.00 | 0.00 | 0.00 | 79 | 1015.3 |
| 20260502200006 | 15 | 338 | 11.3 | 17.7 | 0.00 | 0.00 | 0.00 | 75 | 1015.3 |